Flag for Greenland Weather past 2 weeks in Ittoqqortoormiit, Greenland

Now
39 °F

Passing clouds.


Feels Like: 32 °F
Forecast: 25 / 36 °F
Wind: 10 mph from Southeast

Location: Scoresbysund

Current Time: Apr 19, 2015 at 7:41:51 PM

Latest Report: Apr 19, 2015 at 6:00 PM


Visibility: 19 mi

Pressure: 29.84 "Hg

Humidity: 81%

Dew point: 33 °F

Location of IttoqqortoormiitLocation

Historic Weather in Ittoqqortoormiit — Graph

°F

Ittoqqortoormiit temperature yesterday

Maximum temperature yesterday: 43 °F (at 6:00 PM)
Minimum temperature yesterday: 22 °F (at 6:00 AM)
Average temperature yesterday: 33 °F

Past Weeks' High & Low Weather Summary

 TemperatureHumidityPressure
High43 °F (Apr 18, 6:00 PM)100% (Apr 16, 11:00 PM)29.98 "Hg (Apr 16, 11:00 PM)
Low-3 °F (Apr 12, 7:00 AM)32% (Apr 15, 11:00 AM)29.15 "Hg (Apr 14, 5:00 AM)
Average17 °F72%29.57 "Hg
* Reported Apr 4 6:00 PM — Apr 19 6:00 PM, Ittoqqortoormiit, Weather by CustomWeather, © 2015

Note: Actual official high and low records may vary slightly from our data, if they occured in-between our weather recording intervals... More about our weather records

Advertising

Ittoqqortoormiit weather history for previous 24 hours

 ConditionsComfort  
Time TempWeatherWind HumidityBarometerVisibility
6:00 PM
Sun, Apr 19
39 °FPassing clouds.10 mph81%29.84 "Hg19 mi
5:00 PM40 °FSunny.13 mph77%29.84 "Hg22 mi
4:00 PM39 °FSunny.16 mph83%29.86 "Hg19 mi
3:00 PM38 °FSunny.14 mph86%29.87 "Hg17 mi
2:00 PM37 °FLow clouds.14 mph91%29.90 "Hg13 mi
1:00 PM36 °FScattered clouds.15 mph91%29.94 "Hg19 mi
12:00 PM39 °FSunny.16 mph75%29.93 "Hg25 mi
11:00 AM40 °FSunny.14 mph66%29.91 "Hg31 mi
10:00 AM40 °FSunny.9 mph66%29.91 "Hg31 mi
9:00 AM36 °FSunny.8 mph73%29.92 "Hg31 mi
8:00 AM33 °FSunny.16 mph83%29.91 "Hg31 mi
7:00 AM33 °FSunny.3 mph77%29.92 "Hg31 mi
6:00 AM38 °FSunny.3 mph75%29.92 "Hg31 mi
5:00 AM33 °FPassing clouds.23 mph98%29.91 "Hg22 mi
4:00 AM32 °FPassing clouds.14 mph100%29.93 "Hg13 mi
2:00 AM33 °FClear.25 mph99%29.93 "Hg19 mi
1:00 AM33 °FPassing clouds.17 mph100%29.94 "Hg12 mi
12:00 AM32 °FFog.25 mph100%29.94 "Hg4 mi
11:00 PM
Sat, Apr 18
33 °FClear.22 mph94%29.93 "Hg14 mi
10:00 PM35 °FClear.14 mph82%29.93 "Hg25 mi
9:00 PM36 °FSunny.12 mph81%29.91 "Hg28 mi
8:00 PM40 °FSunny.2 mph66%29.90 "Hg31 mi
7:00 PM35 °FSunny.22 mph87%29.87 "Hg22 mi
Weather by CustomWeather, © 2015

See weather overviewHow to use our weather pages